Arlington, WA

5:36 PM PDT on March 30, 2017 (GMT -0700)
Arlington Municipal

Weather History for KAWO - February, 2012

Change the Weather History Date:

Friday, February 24, 2012

  Actual Average Record
Temperature  
Mean Temperature 42 °F -  
Max Temperature 46 °F 55 °F 62 °F (2005)
Min Temperature 37 °F 27 °F 21 °F (2003)
Degree Days  
Heating Degree Days 24    
Moisture  
Dew Point 41 °F    
Average Humidity 94    
Maximum Humidity 100    
Minimum Humidity 76    
Precipitation  
Precipitation 0.03 in - - ()
Sea Level Pressure  
Sea Level Pressure 29.94 in    
Wind  
Wind Speed 14 mph (SE)    
Max Wind Speed 24 mph    
Max Gust Speed 30 mph    
Visibility 10 miles    
Events      
Averages and records for this station are not official NWS values.
T = Trace of Precipitation, MM = Missing Value Source: NWS Daily Summary

Daily Weather History Graph

Daily Weather History Graph

Search for Another Location

Airport or City:

Trip Planner

Search our weather history database for the weather conditions in past years. The results will help you decide how hot, cold, wet, or windy it might be!

Date:

Astronomy

Feb. 24, 2012 Rise Set
Actual Time 6:59 AM PST 5:44 PM PST
Civil Twilight 6:28 AM PST 6:16 PM PST
Nautical Twilight 5:52 AM PST 6:52 PM PST
Astronomical Twilight 5:16 AM PST 7:28 PM PST
Moon 7:39 AM PST (2/24) 9:14 PM PST (2/24)
Length of Visible Light 11h 47m
Length of Day
10h 44m
Waxing Crescent, 8% of the Moon is Illuminated
Feb 24
Waxing Crescent
Feb 29
First Quarter
Mar 8
Full
Mar 14
Last Quarter
Mar 22
New

Hourly Weather History & Observations

Time (PST) Temp. Windchill Dew Point Humidity Pressure Visibility Wind Dir Wind Speed Gust Speed Precip Events Conditions
12:15 AM 41.0 °F 34.3 °F 39.2 °F 93% 30.29 in 10.0 mi SE 11.5 mph - N/A   Overcast
12:35 AM 41.0 °F 33.5 °F 39.2 °F 93% 30.29 in 10.0 mi SE 13.8 mph 17.3 mph N/A   Mostly Cloudy
12:55 AM 41.0 °F 33.1 °F 39.2 °F 93% 30.28 in 10.0 mi SE 15.0 mph 20.7 mph N/A   Overcast
1:15 AM 39.2 °F 31.2 °F 39.2 °F 100% 30.27 in 10.0 mi SE 13.8 mph - N/A   Overcast
1:35 AM 39.2 °F 30.8 °F 39.2 °F 100% 30.28 in 10.0 mi SE 15.0 mph - N/A   Overcast
1:55 AM 39.2 °F 32.0 °F 39.2 °F 100% 30.28 in 10.0 mi SE 11.5 mph - N/A   Overcast
2:15 AM 39.2 °F 31.2 °F 37.4 °F 93% 30.27 in 10.0 mi SSE 13.8 mph - N/A   Overcast
2:35 AM 39.2 °F 31.6 °F 39.2 °F 100% 30.27 in 10.0 mi SSE 12.7 mph 21.9 mph N/A   Overcast
2:55 AM 39.2 °F 30.8 °F 39.2 °F 100% 30.25 in 10.0 mi SE 15.0 mph 19.6 mph N/A   Overcast
3:15 AM 39.2 °F 32.0 °F 39.2 °F 100% 30.24 in 10.0 mi ESE 11.5 mph 20.7 mph N/A   Overcast
3:35 AM 39.2 °F 31.6 °F 39.2 °F 100% 30.23 in 10.0 mi SE 12.7 mph - N/A   Overcast
3:55 AM 37.4 °F 29.3 °F 37.4 °F 100% 30.22 in 10.0 mi ESE 12.7 mph 19.6 mph N/A   Overcast
4:15 AM 37.4 °F 29.3 °F 37.4 °F 100% 30.20 in 10.0 mi SE 12.7 mph 20.7 mph N/A   Overcast
4:35 AM 39.2 °F 31.2 °F 37.4 °F 93% 30.20 in 10.0 mi ESE 13.8 mph 19.6 mph N/A   Overcast
4:55 AM 39.2 °F 31.2 °F 37.4 °F 93% 30.19 in 10.0 mi ESE 13.8 mph 18.4 mph N/A   Overcast
5:15 AM 39.2 °F 32.0 °F 37.4 °F 93% 30.18 in 10.0 mi ESE 11.5 mph - N/A   Overcast
5:35 AM 39.2 °F 31.2 °F 37.4 °F 93% 30.17 in 10.0 mi ESE 13.8 mph - N/A   Overcast
5:55 AM 39.2 °F 32.5 °F 37.4 °F 93% 30.16 in 10.0 mi ESE 10.4 mph - N/A   Overcast
6:55 AM 41.0 °F 34.3 °F 37.4 °F 87% 30.12 in 10.0 mi ESE 11.5 mph 17.3 mph N/A   Overcast
7:15 AM 41.0 °F 34.7 °F 37.4 °F 87% 30.10 in 10.0 mi ESE 10.4 mph - N/A   Overcast
7:35 AM 41.0 °F 33.9 °F 37.4 °F 87% 30.09 in 10.0 mi ESE 12.7 mph - N/A   Overcast
7:55 AM 42.8 °F 35.4 °F 37.4 °F 81% 30.07 in 10.0 mi SE 15.0 mph 20.7 mph N/A   Overcast
8:15 AM 42.8 °F 35.8 °F 37.4 °F 81% 30.05 in 10.0 mi ESE 13.8 mph 19.6 mph N/A   Overcast
8:35 AM 42.8 °F 35.1 °F 37.4 °F 81% 30.04 in 10.0 mi ESE 16.1 mph 21.9 mph N/A   Overcast
8:55 AM 42.8 °F 35.4 °F 37.4 °F 81% 30.03 in 10.0 mi ESE 15.0 mph 19.6 mph N/A   Overcast
9:15 AM 42.8 °F 34.5 °F 37.4 °F 81% 30.01 in 10.0 mi SE 18.4 mph - N/A   Overcast
9:35 AM 44.6 °F 37.2 °F 37.4 °F 76% 29.99 in 10.0 mi SE 17.3 mph 26.5 mph N/A   Overcast
9:55 AM 44.6 °F 36.6 °F 39.2 °F 81% 29.98 in 10.0 mi SE 19.6 mph 25.3 mph N/A   Overcast
10:15 AM 44.6 °F 37.2 °F 39.2 °F 81% 29.97 in 10.0 mi SE 17.3 mph 24.2 mph N/A   Overcast
10:35 AM 44.6 °F 38.4 °F 39.2 °F 81% 29.97 in 10.0 mi SE 12.7 mph 23.0 mph N/A   Overcast
10:55 AM 46.4 °F 39.0 °F 39.2 °F 76% 29.96 in 10.0 mi SE 19.6 mph 24.2 mph N/A   Overcast
11:15 AM 44.6 °F 36.4 °F 41.0 °F 87% 29.96 in 10.0 mi SSE 20.7 mph 26.5 mph N/A   Overcast
11:35 AM 44.6 °F 37.4 °F 42.8 °F 93% 29.94 in 10.0 mi SE 16.1 mph - N/A   Overcast
11:55 AM 44.6 °F 37.8 °F 42.8 °F 93% 29.93 in 10.0 mi SE 15.0 mph - N/A   Overcast
12:15 PM 44.6 °F 37.2 °F 44.6 °F 100% 29.90 in 10.0 mi SE 17.3 mph - N/A   Overcast
12:55 PM 44.6 °F 39.2 °F 44.6 °F 100% 29.88 in 10.0 mi South 10.4 mph 23.0 mph N/A   Overcast
1:15 PM 44.6 °F 38.8 °F 44.6 °F 100% 29.86 in 10.0 mi SSE 11.5 mph - N/A   Overcast
1:35 PM 44.6 °F 37.4 °F 42.8 °F 93% 29.84 in 10.0 mi SSE 16.1 mph - N/A   Overcast
1:55 PM 44.6 °F 38.1 °F 42.8 °F 93% 29.84 in 10.0 mi SSE 13.8 mph - N/A   Overcast
2:15 PM 42.8 °F 35.8 °F 42.8 °F 100% 29.81 in 10.0 mi SSE 13.8 mph 21.9 mph N/A   Overcast
2:35 PM 42.8 °F 37.5 °F 42.8 °F 100% 29.79 in 10.0 mi South 9.2 mph - N/A   Overcast
2:55 PM 44.6 °F 38.8 °F 44.6 °F 100% 29.78 in 10.0 mi SSW 11.5 mph - N/A   Overcast
3:15 PM 44.6 °F 42.2 °F 44.6 °F 100% 29.76 in 9.0 mi South 4.6 mph - 0.01 in   Overcast
3:35 PM 44.6 °F 39.2 °F 44.6 °F 100% 29.75 in 10.0 mi SSE 10.4 mph - 0.02 in   Overcast
3:55 PM 44.6 °F 40.7 °F 44.6 °F 100% 29.73 in 10.0 mi South 6.9 mph - 0.03 in   Overcast
4:15 PM 44.6 °F 38.4 °F 44.6 °F 100% 29.72 in 10.0 mi SE 12.7 mph 19.6 mph N/A   Overcast
4:35 PM 44.6 °F 38.8 °F 44.6 °F 100% 29.71 in 10.0 mi SSE 11.5 mph - N/A   Overcast
4:55 PM 44.6 °F 37.4 °F 44.6 °F 100% 29.70 in 10.0 mi SSE 16.1 mph 21.9 mph N/A   Overcast
5:15 PM 44.6 °F 38.8 °F 44.6 °F 100% 29.69 in 10.0 mi South 11.5 mph - N/A   Overcast
5:35 PM 44.6 °F 38.4 °F 44.6 °F 100% 29.69 in 10.0 mi South 12.7 mph - N/A   Overcast
5:55 PM 44.6 °F 37.8 °F 44.6 °F 100% 29.68 in 10.0 mi SSE 15.0 mph - N/A   Overcast
6:15 PM 44.6 °F 37.2 °F 44.6 °F 100% 29.65 in 10.0 mi SSE 17.3 mph 26.5 mph N/A   Mostly Cloudy
6:35 PM 44.6 °F 38.1 °F 44.6 °F 100% 29.66 in 10.0 mi South 13.8 mph 25.3 mph N/A   Overcast
6:55 PM 44.6 °F 38.1 °F 44.6 °F 100% 29.66 in 10.0 mi South 13.8 mph - N/A   Overcast
7:15 PM 44.6 °F 37.8 °F 44.6 °F 100% 29.65 in 10.0 mi SSE 15.0 mph - N/A   Overcast
7:35 PM 44.6 °F 38.8 °F 44.6 °F 100% 29.64 in 10.0 mi SSE 11.5 mph 17.3 mph N/A   Overcast
7:55 PM 44.6 °F 35.9 °F 42.8 °F 93% 29.62 in 10.0 mi SSE 23.0 mph 28.8 mph N/A   Overcast
8:15 PM 44.6 °F 36.9 °F 44.6 °F 100% 29.62 in 10.0 mi SSE 18.4 mph 27.6 mph N/A   Overcast
8:55 PM 44.6 °F 35.7 °F 42.8 °F 93% 29.61 in 10.0 mi SSE 24.2 mph 29.9 mph N/A   Overcast
9:15 PM 44.6 °F 35.9 °F 42.8 °F 93% 29.60 in 10.0 mi SSE 23.0 mph 27.6 mph N/A   Overcast
9:35 PM 44.6 °F 36.9 °F 44.6 °F 100% 29.60 in 10.0 mi SSE 18.4 mph - N/A   Overcast
9:55 PM 44.6 °F 37.8 °F 44.6 °F 100% 29.61 in 10.0 mi SSE 15.0 mph - N/A   Overcast
10:15 PM 44.6 °F 37.8 °F 44.6 °F 100% 29.60 in 10.0 mi SSE 15.0 mph - N/A   Overcast
10:35 PM 44.6 °F 38.4 °F 44.6 °F 100% 29.60 in 10.0 mi SSE 12.7 mph - N/A   Overcast
10:55 PM 44.6 °F 37.8 °F 44.6 °F 100% 29.59 in 10.0 mi SSE 15.0 mph 21.9 mph N/A   Overcast
11:15 PM 44.6 °F 39.2 °F 44.6 °F 100% 29.59 in 10.0 mi South 10.4 mph - N/A   Overcast
11:35 PM 44.6 °F 38.8 °F 44.6 °F 100% 29.58 in 10.0 mi South 11.5 mph - N/A   Overcast
11:55 PM 44.6 °F 39.7 °F 44.6 °F 100% 29.58 in 10.0 mi South 9.2 mph - N/A   Overcast